SXIAC LGKO-LGKY

Flight info

Callsign SXIAC
Flight time 0h 3m
Altitude 1500
Route KEFALOS NERA
Aircraft BE9L/L-SD/C

Departure

Time 2026-04-16 12:01
Airport Kos International Airport "Ippokratis" (LGKO)

Arrival

Time 2026-04-16 12:04
Airport Kalymnos Airport (LGKY)
Time Latitude Longitude Altitude Speed Heading
2026-04-16 11:44 36.79752 27.08687 398 ft 0 kts 240°
2026-04-16 11:56 36.79722 27.08720 397 ft 15 kts 124°
2026-04-16 11:56 36.79642 27.08833 396 ft 15 kts 110°
2026-04-16 11:56 36.79637 27.08855 396 ft 0 kts 103°
2026-04-16 11:57 36.79633 27.08876 396 ft 7 kts 102°
2026-04-16 11:57 36.79612 27.08974 395 ft 15 kts 115°
2026-04-16 11:57 36.79507 27.09073 390 ft 23 kts 142°
2026-04-16 11:57 36.79346 27.09191 384 ft 29 kts 147°
2026-04-16 11:58 36.79158 27.09330 381 ft 33 kts 147°
2026-04-16 11:58 36.78953 27.09497 373 ft 36 kts 145°
2026-04-16 11:58 36.78733 27.09681 364 ft 39 kts 144°
2026-04-16 11:58 36.78550 27.09807 352 ft 21 kts 72°
2026-04-16 11:59 36.78599 27.09776 355 ft 0 kts 340°
2026-04-16 12:00 36.78644 27.09746 359 ft 27 kts 327°
2026-04-16 12:00 36.79131 27.09366 382 ft 121 kts 329°
2026-04-16 12:01 36.79888 27.08762 703 ft 144 kts 328°
2026-04-16 12:01 36.80822 27.07984 966 ft 174 kts 328°
2026-04-16 12:01 36.81913 27.07072 1015 ft 196 kts 328°
2026-04-16 12:02 36.84007 27.05856 884 ft 136 kts 317°
2026-04-16 12:02 36.84502 27.04523 109 ft 205 kts 293°
2026-04-16 12:02 36.85046 27.02928 624 ft 181 kts 295°
2026-04-16 12:02 36.85401 27.01575 630 ft 160 kts 276°
2026-04-16 12:03 36.85335 27.00430 1223 ft 115 kts 255°
2026-04-16 12:03 36.84465 27.00097 1508 ft 181 kts 165°
2026-04-16 12:03 36.83211 27.00504 2114 ft 197 kts 154°
2026-04-16 12:03 36.82815 27.01912 1619 ft 215 kts 57°
2026-04-16 12:04 36.83530 27.03526 779 ft 243 kts 105°
2026-04-16 12:04 36.82053 27.04347 12 ft 251 kts 186°
2026-04-16 12:04 36.81910 27.04326 13 ft 0 kts 168°